Regional Weather Roundup
Issued by NWS Sterling, VA

Home | Current Version | Previous Version | Graphics & Text | Print | Product List | Glossary On
Versions: 1 2 3 4 5 6 7 8 9 10 11 12 13 14 15 16 17 18 19 20 21 22 23 24 25 26 27 28 29 30 31 32 33 34 35 36 37 38 39 40 41 42 43 44 45 46 47 48 49 50
895
ASUS41 KLWX 061410
RWRLWX

REGIONAL WEATHER ROUNDUP
NATIONAL WEATHER SERVICE BALTIMORE MD/WASHINGTON DC
900 AM EST SAT FEB 06 2016

Note: "FAIR" indicates few or no clouds below 12,000 feet
with no significant weather and/or obstructions to visibility.
 TC=TEMPERATURE CELSIUS

 * =Non NWS site. Station does not report precipitation (e.g. rain,
    snow, etc.), thunder, or fog.

DCZ001-MDZ009-015-VAZ040>042-051-053>054-061500-
WASHINGTON METRO

CITY           SKY/WX    TMP DP  RH WIND       PRES   REMARKS
WASHINGTON NAT PTSUNNY   33  24  69 S3        30.47S
DULLES         PTSUNNY   29  22  75 CALM      30.45S
ANDREWS AFB    MOSUNNY   32  24  71 S2        30.45R
FT BELVOIR     FAIR      29  22  75 CALM      30.47S
QUANTICO       FAIR      32  23  69 W3        30.50R
COLLEGE PARK*  FAIR      32  28  86 CALM      30.46S
LEESBURG*      FAIR      34  27  75 SW5       30.45S
MANASSAS*      SUNNY     27  27 100 S3        30.47S
GAITHERSBURG*  PTSUNNY   28  19  69 CALM      30.47F

$$

MDZ006>007-011-014-061500-
BALTIMORE METRO

CITY           SKY/WX    TMP DP  RH WIND       PRES   REMARKS
BWI AIRPORT    PTSUNNY   30  23  75 CALM      30.45S
MD SCIENCE CTR   N/A     34  21  59 MISG      30.49R
MARTIN STATE   MOSUNNY   28  27  93 CALM      30.48R
ANNAPOLIS      CLOUDY    33  26  75 CALM      30.47S
FORT MEADE*    MOSUNNY   28  27  93 CALM      30.48S

$$

MDZ012-015-019>023-061500-
MARYLAND EASTERN SHORE

CITY           SKY/WX    TMP DP  RH WIND       PRES   REMARKS
OCEAN CITY     CLOUDY    34  25  69 CALM      30.48R
SALISBURY      CLOUDY    31  27  85 CALM      30.47S
BAY BRIDGE AP*   N/A     34  27  75 CALM      30.47S
CAMBRIDGE*     MOSUNNY   32  30  93 CALM      30.46F
EASTON*        PTSUNNY   32  28  86 CALM      30.50R

$$

MDZ017>025-061500-
SOUTHERN MARYLAND

CITY           SKY/WX    TMP DP  RH WIND       PRES   REMARKS
PATUXENT RIVER PTSUNNY   32  25  75 SW3       30.48R
ST INIGOES     PTSUNNY   32  28  85 CALM      30.47S
LEONARDTOWN*   PTSUNNY   32  21  64 CALM      30.49S

$$

MDZ003>005-061500-
NORTH CENTRAL MARYLAND

CITY           SKY/WX    TMP DP  RH WIND       PRES   REMARKS
FREDERICK*     SUNNY     28  25  86 CALM      30.47F
HAGERSTOWN APT PTSUNNY   30  18  60 S6        30.40F
WESTMINSTER*   PTSUNNY   32  27  80 SW5       30.41S

$$

MDZ501>502-061500-
WESTERN MARYLAND

CITY           SKY/WX    TMP DP  RH WIND       PRES   REMARKS
OAKLAND*       CLOUDY    27  14  59 SW7       30.25F
CUMBERLAND*    CLOUDY    27  23  86 CALM      30.43F

$$

VAZ025>031-061500-
SHENANDOAH VALLEY

CITY           SKY/WX    TMP DP  RH WIND       PRES   REMARKS
WINCHESTER*    FAIR      30  23  74 S5        30.41S
FRONT ROYAL*   FAIR      32  21  64 S3        30.40F
LURAY*         FAIR      28  23  80 CALM      30.41S
NEW MARKET*    FAIR      28  21  74 CALM      30.40S
STAUNTON*      FAIR      31  24  74 CALM      30.42S
WAYNESBORO*    FAIR      28  19  68 CALM      30.40R

$$

WVZ021-048>050-054>055-061500-
EASTERN WEST VIRGINIA PANHANDLE

CITY           SKY/WX    TMP DP  RH WIND       PRES   REMARKS
MARTINSBURG    FAIR      29  20  69 S5        30.41F
PETERSBURG*    FAIR      25  21  86 CALM      30.40F

$$

VAZ036>039-050-061500-
CENTRAL FOOTHILLS

CITY           SKY/WX    TMP DP  RH WIND       PRES   REMARKS
CHARLOTTESVILL FAIR      30  22  72 S3        30.44R
CULPEPER*      FAIR      26  22  85 CALM      30.47S
ORANGE*        FAIR      32  23  69 CALM      30.47R
GORDONSVILLE*  FAIR      31  25  76 SW5       30.46R
WARRENTON*     FAIR      29  26  92 CALM      30.45F

$$

VAZ055>057-061500-
NORTH AND CENTRAL PIEDMONT

CITY           SKY/WX    TMP DP  RH WIND       PRES   REMARKS
FREDERICKSBRG* FAIR      29  25  87 CALM      30.48R
STAFFORD*      FAIR      30  23  75 CALM      30.51S

$$

NCZ024-NYZ072-PAZ021-071-VAZ022-071-061500-
OTHER REGIONAL OBSERVATIONS

CITY           SKY/WX    TMP DP  RH WIND       PRES   REMARKS
NEW YORK CITY  CLOUDY    33  16  49 W7        30.44S
PHILADELPHIA   CLOUDY    32  23  69 SW3       30.46R
PITTSBURGH     PTSUNNY   32  15  49 SW7       30.30S
ROANOKE        PTSUNNY   29  19  66 CALM      30.45R
RICHMOND       CLOUDY    31  27  85 CALM      30.48R
RALEIGH        PTSUNNY   34  22  61 CALM      30.46R

$$

ANZ530>537-061500-
MARINE OBSERVATIONS

STATION/POSITION TIME  TEMP    WIND        PRES
                       AIR SEA DIR/SP/G
                 (UTC) (F)     (DEG/KT/KT) (MB)
THOMAS PT LIGHT  1300   32 38  260/  4/  5 1032.5R
BALT KEY BRIDGE  1300   30     210/  3/  3 1031.7R
COVE POINT       1300   35     240/  1/  3 1032.3R
LEWISETTA        1300   31 42  300/  2/  2 1031.6R
SOLOMONS ISLAND  1300   31 40  360/  1/  2   N/A

$$





USA.gov is the U.S. government's official web portal to all federal, state and local government web resources and services.